Belize, Belize

7:36 AM CST on May 27, 2017 (GMT -0600)
Philip S W Goldson International

Weather History for MZBZ - August, 2014

Change the Weather History Date:

Monday, August 4, 2014

  Actual Average Record
Temperature  
Mean Temperature 83 °F -  
Max Temperature 90 °F 89 °F 91 °F (2004)
Min Temperature 76 °F 76 °F 75 °F (2001)
Cooling Degree Days 18    
Growing Degree Days 33 (Base 50)    
Moisture  
Dew Point 76 °F    
Average Humidity 75    
Maximum Humidity 96    
Minimum Humidity 57    
Precipitation  
Precipitation 0.00 in 0.26 in - ()
Sea Level Pressure  
Sea Level Pressure 29.96 in    
Wind  
Wind Speed 4 mph ()    
Max Wind Speed 9 mph    
Max Gust Speed -    
Visibility 8.4 miles    
Events      
Averages and records for this station are not official NWS values.
T = Trace of Precipitation, MM = Missing Value Source: Averaged Metar Reports

Daily Weather History Graph

Daily Weather History Graph

Search for Another Location

Airport or City:

Trip Planner

Search our weather history database for the weather conditions in past years. The results will help you decide how hot, cold, wet, or windy it might be!

Date:

Astronomy

Aug. 04, 2014 Rise Set
Actual Time 5:33 AM CST 6:25 PM CST
Civil Twilight 5:10 AM CST 6:48 PM CST
Nautical Twilight 4:43 AM CST 7:15 PM CST
Astronomical Twilight 4:15 AM CST 7:42 PM CST
Moon 12:39 PM CST (8/4) No Moon Set
Length of Visible Light 13h 37m
Length of Day
12h 51m
First Quarter, 58% of the Moon is Illuminated
Aug 4
First Quarter
Aug 10
Full
Aug 17
Last Quarter
Aug 25
New
Sep 2
First Quarter

Hourly Weather History & Observations

Time (CST) Temp. Heat Index Dew Point Humidity Pressure Visibility Wind Dir Wind Speed Gust Speed Precip Events Conditions
12:00 AM 80 °F - 76 °F 84% 29.96 in 12 mi ESE 3.5 mph - -   Scattered Clouds
3:00 AM 78 °F - 75 °F 87% 29.92 in 12 mi SSE 2.3 mph - -   Scattered Clouds
5:00 AM 77.0 °F - 75.2 °F 94% 29.93 in 6.2 mi NW 3.5 mph - N/A   Scattered Clouds
6:00 AM 76 °F - 75 °F 96% 29.96 in 12 mi NW 2.3 mph - -   Partly Cloudy
6:00 AM 77.0 °F - 75.2 °F 94% 29.95 in 6.2 mi NW 2.3 mph - N/A   Scattered Clouds
7:00 AM 78.8 °F - 75.2 °F 89% 29.98 in 6.2 mi WNW 4.6 mph - N/A   Scattered Clouds
8:00 AM 82.4 °F 90.9 °F 77.0 °F 84% 29.99 in 6.2 mi WNW 2.3 mph - N/A   Scattered Clouds
9:00 AM 84 °F - 78 °F 76% 30.01 in 12 mi NNW 4.6 mph - -   Mostly Cloudy
9:00 AM 84.2 °F 94.1 °F 77.0 °F 79% 30.00 in 6.2 mi NNW 4.6 mph - N/A   Mostly Cloudy
10:00 AM 84.2 °F 92.3 °F 75.2 °F 74% 30.00 in 6.2 mi North 3.5 mph - N/A   Scattered Clouds
11:00 AM 87.8 °F 99.7 °F 77.0 °F 70% 29.98 in 6.2 mi Calm Calm - N/A   Scattered Clouds
12:00 PM 89 °F - 76 °F 59% 29.98 in 12 mi ENE 4.6 mph - -   Partly Cloudy
12:00 PM 89.6 °F 102.2 °F 77.0 °F 66% 29.97 in 6.2 mi ENE 4.6 mph - N/A   Scattered Clouds
1:00 PM 89.6 °F 99.8 °F 75.2 °F 62% 29.96 in 6.2 mi ENE 6.9 mph - N/A   Scattered Clouds
2:00 PM 89.6 °F 99.8 °F 75.2 °F 62% 29.94 in 6.2 mi ENE 8.1 mph - N/A   Partly Cloudy
3:00 PM 90 °F - 76 °F 57% 29.93 in 12 mi ENE 6.9 mph - -   Scattered Clouds
3:00 PM 89.6 °F 102.2 °F 77.0 °F 66% 29.92 in 6.2 mi ENE 6.9 mph - N/A   Partly Cloudy
4:00 PM 89.6 °F 102.2 °F 77.0 °F 66% 29.92 in 6.2 mi East 9.2 mph - N/A   Partly Cloudy
5:00 PM 87.8 °F 99.7 °F 77.0 °F 70% 29.92 in 6.2 mi East 6.9 mph - N/A   Partly Cloudy
6:00 PM 86 °F - 76 °F 65% 29.95 in 12 mi East 6.9 mph - -   Scattered Clouds
9:00 PM 82 °F - 76 °F 76% 30.00 in 12 mi East 3.5 mph - -   Scattered Clouds